Home   Weather   Iquitos   Past weeks

Flag for Peru Past Weather in Iquitos, Loreto, Peru — Yesterday and Last 2 Weeks

Now
79 °F

Broken clouds.


Feels Like: 82 °F
Forecast: 73 / 89 °F
Wind: 1 mph from North

Location: Iquitos Airport

Current Time: Sep 27, 2016 at 8:52:51 AM

Latest Report: Sep 27, 2016 at 8:00 AM


Visibility: N/A

Pressure: 29.92 "Hg

Humidity: 89%

Dew Point: 75 °F

Location of IquitosLocation

Past Weather in Iquitos — Graph

°F

Iquitos Temperature Yesterday

Maximum temperature yesterday: 91 °F (at 2:00 PM)
Minimum temperature yesterday: 73 °F (at 12:00 AM)
Average temperature yesterday: 80 °F

High & Low Weather Summary for the Past Weeks

 TemperatureHumidityPressure
High95 °F (Sep 13, 3:00 PM)100% (Sep 15, 12:00 AM)30.04 "Hg (Sep 15, 12:00 AM)
Low70 °F (Sep 15, 12:00 AM)52% (Sep 25, 4:00 PM)29.74 "Hg (Sep 13, 4:00 PM)
Average79 °F83%29.90 "Hg
* Reported Sep 12 7:00 AM — Sep 27 7:00 AM, Iquitos, Weather by CustomWeather, © 2016

Note: Actual official high and low records may vary slightly from our data, if they occured in-between our weather recording intervals... More about our weather records

Advertising

Iquitos Weather History for the Previous 24 Hours

Scroll right to see more
 ConditionsComfort  
Time TempWeatherWind HumidityBarometerVisibility
7:00 AM
Tue, Sep 27
75 °FPartly sunny.No wind94%29.92 "HgN/A
6:00 AM75 °FFog.No wind94%29.89 "Hg5 mi
5:00 AM75 °FFog.No wind94%29.86 "Hg5 mi
4:00 AM75 °FFog.No wind94%29.86 "Hg5 mi
3:00 AM75 °FPassing clouds.No wind94%29.86 "HgN/A
2:00 AM75 °FPassing clouds.No wind94%29.86 "HgN/A
1:00 AM75 °FPassing clouds.No wind94%29.86 "HgN/A
12:00 AM77 °FPassing clouds.5 mph89%29.89 "HgN/A
11:00 PM
Mon, Sep 26
77 °FPassing clouds.5 mph89%29.89 "HgN/A
10:00 PM77 °FPassing clouds.5 mph89%29.89 "HgN/A
9:00 PM77 °FPassing clouds.6 mph89%29.89 "HgN/A
8:00 PM77 °FPassing clouds.No wind89%29.86 "HgN/A
7:00 PM79 °FPassing clouds.5 mph89%29.83 "HgN/A
6:00 PM81 °FPassing clouds.9 mph84%29.80 "HgN/A
5:00 PM84 °FScattered clouds.3 mph79%29.77 "HgN/A
4:00 PM82 °FScattered clouds.5 mph79%29.77 "HgN/A
3:00 PM90 °FRain showers. Scattered clouds.9 mph63%29.77 "HgN/A
2:00 PM91 °FPartly sunny.6 mph52%29.80 "HgN/A
1:00 PM88 °FPartly sunny.3 mph66%29.86 "HgN/A
12:00 PM88 °FPartly sunny.6 mph59%29.89 "HgN/A
11:00 AM86 °FPartly sunny.2 mph62%29.95 "HgN/A
10:00 AM86 °FScattered clouds.6 mph66%29.98 "HgN/A
9:00 AM82 °FScattered clouds.5 mph70%29.98 "HgN/A
8:00 AM79 °FScattered clouds.3 mph79%29.98 "HgN/A
Weather by CustomWeather, © 2016

See weather overviewHow to use our weather pages